Aérodrome :
LOGIN :

S'inscrire | Disclaimer

   EN    FR    IT 

 










Légende :    VFR   VFR Marginal   IFR   IFR Intensif   IFR Très Intensif
Visi : 
Plafond : 
>= 8 km
>= 3000ft
5 à 8 km
1000 à 3000 ft
1500m à 5 km
500 à 1000 ft
800 à 1500m
200 à 500 ft
< 800m
< 200 ft
Symboles :   Orages  Brouillard  Fortes neiges  Fortes précipitations  Vent > 20 kt
SIGMETs :   Divers  Orages  Givrage  Turbulence  Onde Orograph.  Cendres Volcan.






- Altitude de l'aérodrome : 353 ft
- Code IATA : CND


LRCK - Constanta

DERNIER METAR :
  • 080230Z 33012KT CAVOK 14/10 Q1013 R36/29//95 NOSIG

METARs EXPIRÉS :
  • 080200Z 32011KT CAVOK 14/10 Q1013 R36/29//95 NOSIG
  • 080130Z 33011KT CAVOK 14/11 Q1013 R36/29//95 NOSIG
  • 080100Z 33009KT CAVOK 14/11 Q1013 R36/29//95 NOSIG
  • 080030Z 33013KT CAVOK 15/11 Q1012 R36/29//95 NOSIG
  • 080000Z 33014KT CAVOK 15/11 Q1012 R36/29//95 NOSIG

TAF TAF LRCK
Valide du 08 à 00h jusqu'au 09 à 00h UTC


072300Z 0800/0900 33014KT 9999 SCT040
BECMG 0818/0820 35004KT



MET'MAP, la Météo Aéronautique d'un coup d'oeil ! - Copyright ORBIFLY Décembre 2007 - Disclaimer

ORBIFLY MET'MAP TEAM :

Programmation & Développement : Alexandra Zaïnal
Sur une idée originale de : Baudouin d'Aumeries
Assistance à la programmation : Marc-Olivier Méhu
Soutien technique & logistique : Manuel Goepfert

Contact : metmap@orbifly.com




SOURCES & CREDITS :

   NOAA